Location: La Comballaz
(46.3780°N, 7.0817°E)
Time: 19:33:00
(UTC+00:00)

N. Korean satellite - Pass Details

Date: 10 December 2021
Orbit: 446 x 492 km, 97.3° (Epoch: 18 January)

Event Time Altitude Azimuth Distance (km) Brightness Sun altitude
Rises 05:00:53 0° 10° (N) 2,461 10.1 -20.3°
Reaches altitude 10° 05:02:56 10° 8° (N) 1,584 9.1 -20.0°
Enters shadow 05:04:00 19° 5° (N) 1,139 8.3 -19.8°
Exits shadow 05:06:33 65° 250° (WSW) 497 6.3 -19.4°
Drops below altitude 10° 05:09:39 10° 201° (SSW) 1,575 9.1 -18.8°
Sets 05:11:40 0° 199° (SSW) 2,446 10.1 -18.5°
